Welcome to Des Moines Iowa Weather. I am an independent private personal weather station on the Northwest Side of Des Moines, Iowa. Just East of Windsor Heights and just West of Glendale . This site is also mobile friendly.

There are no active watches, warnings or advisories


Visit our other weather sites:

Historical Data

Weather Station Setup



Weather Underground History page Text

Daily Summary for November 4, 2017 Units:  English    Metric   Both
« Previous Day
Next Day »
Daily Weekly Monthly Yearly Custom
  High: Low: Average:
Temperature: 49.0 °F 42.1 °F 45.4 °F
Dew Point: 44.0 °F 38.0 °F 41.7 °F
Humidity: 93 % 81 % 87 %
Wind Speed: 6.0 mph 0.0 mph 0.6 mph
Wind Gust: 14.0 mph - -
Wind:- - ENE
Pressure: 30.07 in 29.78 in -
Precipitation: 0.00 in    
Historical Graphs
 
 
Tabular Data for November 4, 2017
Time Temperature Dew Point Pressure Wind Wind Speed Wind Gust Humidity Rainfall Rate (Hourly)
00:14 43.5 °F 38.0 °F 30.07 in ESE 2.0 mph 8.0 mph 81 % 0.00 in
00:29 43.2 °F 38.0 °F 30.06 in NE 6.0 mph 6.0 mph 82 % 0.00 in
00:44 43.2 °F 38.0 °F 30.06 in SE 1.0 mph 7.0 mph 83 % 0.00 in
00:59 43.2 °F 38.0 °F 30.04 in ENE 1.0 mph 14.0 mph 83 % 0.00 in
01:14 43.2 °F 38.0 °F 30.04 in East 2.0 mph 8.0 mph 83 % 0.00 in
01:30 43.1 °F 38.0 °F 30.04 in SSE 4.0 mph 8.0 mph 83 % 0.00 in
01:44 43.1 °F 38.0 °F 30.03 in ESE 1.0 mph 10.0 mph 83 % 0.00 in
01:59 43.1 °F 38.0 °F 30.02 in SE 2.0 mph 4.0 mph 83 % 0.00 in
02:14 43.0 °F 38.0 °F 30.02 in ESE 1.0 mph 4.0 mph 83 % 0.00 in
02:29 42.9 °F 38.0 °F 30.01 in NNE 3.0 mph 7.0 mph 84 % 0.00 in
02:44 42.8 °F 38.0 °F 30.01 in Calm   4.0 mph 84 % 0.00 in
02:59 42.8 °F 38.0 °F 30.01 in NE 3.0 mph 6.0 mph 84 % 0.00 in
03:14 42.7 °F 39.0 °F 30.00 in NE 1.0 mph 2.0 mph 85 % 0.00 in
03:29 42.7 °F 39.0 °F 30.00 in Calm   3.0 mph 85 % 0.00 in
03:44 42.6 °F 38.0 °F 30.00 in NE 2.0 mph 4.0 mph 85 % 0.00 in
03:59 42.5 °F 38.0 °F 29.99 in NNE 2.0 mph 5.0 mph 85 % 0.00 in
04:14 42.5 °F 39.0 °F 29.98 in NE 1.0 mph 4.0 mph 86 % 0.00 in
04:29 42.4 °F 39.0 °F 29.98 in Calm   3.0 mph 86 % 0.00 in
04:59 42.5 °F 39.0 °F 29.97 in East 1.0 mph 3.0 mph 87 % 0.00 in
05:14 42.5 °F 39.0 °F 29.97 in Calm   3.0 mph 87 % 0.00 in
05:29 42.5 °F 39.0 °F 29.97 in NE 1.0 mph 3.0 mph 87 % 0.00 in
05:44 42.5 °F 39.0 °F 29.97 in Calm   2.0 mph 88 % 0.00 in
05:59 42.5 °F 39.0 °F 29.96 in Calm   4.0 mph 88 % 0.00 in
06:14 42.5 °F 39.0 °F 29.96 in NE 4.0 mph 5.0 mph 88 % 0.00 in
06:29 42.4 °F 39.0 °F 29.96 in NE 4.0 mph 5.0 mph 89 % 0.00 in
06:44 42.3 °F 39.0 °F 29.96 in ENE 1.0 mph 3.0 mph 89 % 0.00 in
06:59 42.3 °F 39.0 °F 29.96 in Calm   3.0 mph 89 % 0.00 in
07:14 42.3 °F 40.0 °F 29.95 in ENE 2.0 mph 4.0 mph 90 % 0.00 in
07:29 42.3 °F 40.0 °F 29.95 in Calm   3.0 mph 90 % 0.00 in
07:44 42.2 °F 40.0 °F 29.96 in Calm   3.0 mph 90 % 0.00 in
07:59 42.2 °F 40.0 °F 29.96 in Calm   3.0 mph 91 % 0.00 in
08:14 42.2 °F 40.0 °F 29.95 in Calm     91 % 0.00 in
08:30 42.2 °F 40.0 °F 29.94 in Calm   2.0 mph 91 % 0.00 in
08:45 42.1 °F 40.0 °F 29.94 in Calm   4.0 mph 92 % 0.00 in
09:00 42.1 °F 40.0 °F 29.94 in ENE 2.0 mph 4.0 mph 92 % 0.00 in
09:15 42.1 °F 40.0 °F 29.94 in Calm   2.0 mph 92 % 0.00 in
09:30 42.3 °F 41.0 °F 29.94 in Calm   3.0 mph 93 % 0.00 in
09:45 42.5 °F 41.0 °F 29.94 in Calm     93 % 0.00 in
10:00 42.7 °F 41.0 °F 29.94 in Calm   2.0 mph 93 % 0.00 in
10:15 42.8 °F 41.0 °F 29.94 in East 1.0 mph 4.0 mph 93 % 0.00 in
10:30 43.1 °F 41.0 °F 29.94 in Calm   1.0 mph 93 % 0.00 in
10:45 43.4 °F 41.0 °F 29.94 in East 1.0 mph 3.0 mph 92 % 0.00 in
11:00 43.9 °F 42.0 °F 29.94 in Calm   1.0 mph 92 % 0.00 in
11:15 44.3 °F 42.0 °F 29.94 in Calm     92 % 0.00 in
11:30 44.7 °F 42.0 °F 29.94 in Calm   4.0 mph 91 % 0.00 in
11:45 45.1 °F 43.0 °F 29.93 in East 2.0 mph 2.0 mph 91 % 0.00 in
12:00 45.6 °F 43.0 °F 29.93 in Calm   4.0 mph 90 % 0.00 in
12:15 46.0 °F 43.0 °F 29.92 in Calm   2.0 mph 90 % 0.00 in
12:21 46.2 °F 43.0 °F 29.93 in Calm   2.0 mph 89 % 0.00 in
12:35 46.5 °F 43.0 °F 29.92 in Calm   2.0 mph 88 % 0.00 in
12:51 46.6 °F 43.0 °F 29.91 in Calm   2.0 mph 87 % 0.00 in
13:06 46.9 °F 43.0 °F 29.90 in Calm     87 % 0.00 in
13:21 47.3 °F 44.0 °F 29.89 in Calm     87 % 0.00 in
13:36 47.6 °F 44.0 °F 29.88 in Calm   1.0 mph 86 % 0.00 in
13:51 47.8 °F 44.0 °F 29.88 in Calm     86 % 0.00 in
14:06 47.9 °F 44.0 °F 29.87 in Calm     86 % 0.00 in
14:21 48.1 °F 44.0 °F 29.86 in ESE 2.0 mph 2.0 mph 86 % 0.00 in
14:36 48.3 °F 44.0 °F 29.85 in Calm   4.0 mph 85 % 0.00 in
14:51 48.4 °F 44.0 °F 29.84 in Calm   2.0 mph 84 % 0.00 in
15:06 48.6 °F 44.0 °F 29.84 in Calm     84 % 0.00 in
15:21 48.8 °F 44.0 °F 29.85 in Calm   1.0 mph 83 % 0.00 in
15:36 49.0 °F 44.0 °F 29.84 in Calm     83 % 0.00 in
15:51 49.0 °F 44.0 °F 29.84 in Calm   1.0 mph 83 % 0.00 in
16:06 48.9 °F 44.0 °F 29.84 in Calm     83 % 0.00 in
16:21 49.0 °F 44.0 °F 29.84 in Calm     83 % 0.00 in
16:36 48.9 °F 44.0 °F 29.83 in Calm   1.0 mph 83 % 0.00 in
16:51 48.9 °F 44.0 °F 29.83 in Calm     83 % 0.00 in
17:06 48.8 °F 44.0 °F 29.82 in Calm     83 % 0.00 in
17:21 48.8 °F 44.0 °F 29.83 in Calm     84 % 0.00 in
17:36 48.8 °F 44.0 °F 29.82 in Calm     84 % 0.00 in
17:51 48.7 °F 44.0 °F 29.82 in Calm     84 % 0.00 in
18:06 48.6 °F 44.0 °F 29.82 in Calm     85 % 0.00 in
18:21 48.5 °F 44.0 °F 29.82 in Calm     85 % 0.00 in
18:36 48.4 °F 44.0 °F 29.81 in Calm   1.0 mph 85 % 0.00 in
18:51 48.3 °F 44.0 °F 29.81 in Calm   1.0 mph 85 % 0.00 in
19:07 48.2 °F 44.0 °F 29.82 in Calm   2.0 mph 86 % 0.00 in
19:21 48.1 °F 44.0 °F 29.82 in Calm   3.0 mph 86 % 0.00 in
19:36 48.1 °F 44.0 °F 29.81 in Calm   2.0 mph 86 % 0.00 in
19:51 48.0 °F 44.0 °F 29.81 in Calm   4.0 mph 86 % 0.00 in
20:07 47.9 °F 44.0 °F 29.82 in Calm   1.0 mph 86 % 0.00 in
20:22 47.9 °F 44.0 °F 29.82 in Calm     87 % 0.00 in
20:37 47.9 °F 44.0 °F 29.82 in Calm     87 % 0.00 in
20:52 47.7 °F 44.0 °F 29.82 in Calm     87 % 0.00 in
21:07 47.7 °F 44.0 °F 29.82 in Calm   1.0 mph 87 % 0.00 in
21:23 47.6 °F 44.0 °F 29.82 in Calm     88 % 0.00 in
21:37 47.6 °F 44.0 °F 29.83 in Calm   1.0 mph 88 % 0.00 in
21:52 47.4 °F 44.0 °F 29.83 in Calm     88 % 0.00 in
22:07 47.4 °F 44.0 °F 29.82 in Calm     88 % 0.00 in
22:23 47.4 °F 44.0 °F 29.83 in Calm     88 % 0.00 in
22:33 47.4 °F 44.0 °F 29.83 in Calm     88 % 0.00 in
22:45 47.4 °F 44.0 °F 29.81 in Calm     88 % 0.00 in
23:00 47.4 °F 44.0 °F 29.80 in Calm     88 % 0.00 in
23:15 47.5 °F 44.0 °F 29.80 in Calm     87 % 0.00 in
23:30 47.6 °F 44.0 °F 29.80 in Calm     87 % 0.00 in
23:45 47.6 °F 44.0 °F 29.78 in Calm     87 % 0.00 in
Des Moines Weather and Climate
Compliments of Weather Underground - 3 mb

Script developed by  Jim McMurry - jmcmurry@mwt.net Adapted for the template by  Wim van der Kuil - Leuven-Template.eu

You find our weather info also at:

Weather Underground

Equipment we use:

Weather-station
Davis VP2 Plus

Weather-program
Davis Weatherlink.Com

Weather-server
iMac (Retina 4K, 21.5-inch, Late 2015)

Provider
Hostmonster.com

Davis VP2 Plus

Davis Weatherlink.Com

iMac (Retina 4K, 21.5-inch, Late 2015)

Hostmonster.com